Terminal Aerodrome Forecast
Issued by NWS

Home | Current Version | Previous Version | Text Only | Print | Product List | Glossary Off
Versions: 1 2 3 4 5 6 7 8 9 10 11 12 13 14 15 16 17 18 19 20 21 22 23 24 25 26 27 28 29

000
FTUS45 KGGW 100536
TAFOLF
TAF
KOLF 100536Z 1006/1106 26006KT P6SM BKN200
     FM101500 30008KT P6SM SCT090 BKN150
     FM101800 34010KT P6SM SCT040 BKN080
     FM110000 02007KT P6SM BKN035=

USA.gov is the U.S. government's official web portal to all federal, state and local government web resources and services.